When you browse on this site, cookies collect data to enhance your experience and personalize the content and advertising you see.
Visit our Privacy Policy to learn more. By continuing to use the site, you agree to this use of cookies and data.
  • In Hungary
  • List of Countries
  • For 7 days
  • Water Temperature
  • Satellite Maps
  • Weather Map
  • News
  • Weather Widgets
  • user-avatar
    Login

    Hourly Weather Gavle

    Today, 17 December, Monday

    Time Temperature Precipitation Wind Pressure Humidity
    00:00 -3°C° 0.5 mm 4 mps 763 mmHg 92%
    01:00 -3°C° 0 mm 4 mps 762 mmHg 93%
    02:00 -3°C° 0.5 mm 4 mps 762 mmHg 94%
    03:00 -2°C° 0.5 mm 3 mps 761 mmHg 95%
    04:00 -2°C° 0.5 mm 3 mps 761 mmHg 96%
    05:00 -2°C° 0.1 mm 3 mps 761 mmHg 96%
    06:00 -2°C° 0.1 mm 2 mps 761 mmHg 96%
    07:00 -3°C° 0 mm 2 mps 761 mmHg 97%
    08:00 -3°C° 0 mm 2 mps 761 mmHg 96%
    09:00 -3°C° 0 mm 2 mps 761 mmHg 96%
    10:00 -3°C° 0 mm 2 mps 762 mmHg 96%
    11:00 -3°C° 0 mm 2 mps 762 mmHg 94%
    12:00 -3°C° 0 mm 2 mps 762 mmHg 93%
    13:00 0°C° 0 mm 1 mps 762 mmHg 91%
    14:00 -3°C° 0 mm 2 mps 763 mmHg 91%
    15:00 -3°C° 0 mm 2 mps 763 mmHg 92%
    16:00 -3°C° 0 mm 2 mps 763 mmHg 92%
    17:00 -4°C° 0 mm 2 mps 764 mmHg 92%
    18:00 -4°C° 0 mm 2 mps 764 mmHg 93%
    19:00 -4°C° 0 mm 2 mps 764 mmHg 93%
    20:00 -5°C° 0 mm 2 mps 765 mmHg 93%
    21:00 -5°C° 0 mm 2 mps 765 mmHg 94%
    22:00 -5°C° 0 mm 2 mps 765 mmHg 94%
    23:00 -5°C° 0 mm 2 mps 765 mmHg 93%

    Tomorrow, 18 December, Tuesday

    Time Temperature Precipitation Wind Pressure Humidity
    00:00 -5°C° 0 mm 2 mps 766 mmHg 93%
    01:00 -5°C° 0 mm 2 mps 766 mmHg 93%
    02:00 -5°C° 0 mm 2 mps 766 mmHg 93%
    03:00 -5°C° 0 mm 2 mps 766 mmHg 93%
    04:00 -5°C° 0 mm 2 mps 766 mmHg 93%
    05:00 -5°C° 0.1 mm 2 mps 766 mmHg 93%
    06:00 -5°C° 0.1 mm 2 mps 766 mmHg 93%
    07:00 -4°C° 0.1 mm 2 mps 766 mmHg 92%
    08:00 -4°C° 0.1 mm 2 mps 766 mmHg 93%
    09:00 -4°C° 0.1 mm 2 mps 767 mmHg 93%
    10:00 -4°C° 0.1 mm 2 mps 767 mmHg 93%
    11:00 -4°C° 0 mm 2 mps 767 mmHg 92%
    12:00 -4°C° 0 mm 2 mps 767 mmHg 92%
    13:00 -4°C° 0 mm 2 mps 767 mmHg 91%
    14:00 -4°C° 0.1 mm 2 mps 767 mmHg 92%
    15:00 -5°C° 0.1 mm 2 mps 767 mmHg 92%
    16:00 -5°C° 0.1 mm 2 mps 767 mmHg 93%
    17:00 -3°C° 0 mm 1 mps 767 mmHg 92%
    18:00 -4°C° 0 mm 1 mps 767 mmHg 92%
    19:00 -4°C° 0 mm 1 mps 767 mmHg 91%
    20:00 -4°C° 0 mm 1 mps 767 mmHg 91%
    21:00 -4°C° 0 mm 1 mps 768 mmHg 90%
    22:00 -4°C° 0 mm 1 mps 768 mmHg 90%
    23:00 -4°C° 0 mm 1 mps 768 mmHg 91%

    Day after tomorrow, 19 December, Wednesday

    Time Temperature Precipitation Wind Pressure Humidity
    00:00 -4°C° 0 mm 1 mps 768 mmHg 91%
    01:00 -3°C° 0 mm 1 mps 768 mmHg 92%
    02:00 -4°C° 0 mm 1 mps 768 mmHg 92%
    03:00 -4°C° 0 mm 1 mps 768 mmHg 93%
    04:00 -4°C° 0 mm 1 mps 767 mmHg 94%
    05:00 -4°C° 0 mm 1 mps 767 mmHg 95%
    06:00 -4°C° 0 mm 1 mps 767 mmHg 95%
    07:00 -4°C° 0 mm 1 mps 767 mmHg 96%
    08:00 -4°C° 0 mm 1 mps 768 mmHg 95%
    09:00 -3°C° 0 mm 1 mps 768 mmHg 95%
    10:00 -5°C° 0 mm 2 mps 768 mmHg 95%
    11:00 -4°C° 0.1 mm 2 mps 767 mmHg 93%
    12:00 -4°C° 0.1 mm 2 mps 767 mmHg 92%
    13:00 -3°C° 0.1 mm 2 mps 767 mmHg 91%
    14:00 -4°C° 0.1 mm 3 mps 767 mmHg 91%
    15:00 -4°C° 0.1 mm 3 mps 766 mmHg 91%
    16:00 -2°C° 0.1 mm 3 mps 766 mmHg 92%
    17:00 -2°C° 0.1 mm 3 mps 766 mmHg 92%
    18:00 -2°C° 0.1 mm 3 mps 766 mmHg 92%
    19:00 -2°C° 0.1 mm 3 mps 766 mmHg 92%
    20:00 -2°C° 0.1 mm 3 mps 766 mmHg 93%
    21:00 -2°C° 0.1 mm 3 mps 766 mmHg 93%
    22:00 -2°C° 0.1 mm 3 mps 766 mmHg 93%
    23:00 -1°C° 0.2 mm 3 mps 765 mmHg 93%

    20 December, Thursday

    Time Temperature Precipitation Wind Pressure Humidity
    00:00 -2°C° 0.2 mm 4 mps 765 mmHg 93%
    01:00 -2°C° 0.2 mm 4 mps 765 mmHg 93%
    02:00 -1°C° 0.2 mm 4 mps 765 mmHg 93%
    03:00 -1°C° 0.2 mm 4 mps 765 mmHg 94%
    04:00 -1°C° 0.2 mm 4 mps 765 mmHg 94%
    05:00 -1°C° 0.2 mm 4 mps 765 mmHg 94%
    06:00 -1°C° 0.2 mm 4 mps 765 mmHg 94%
    07:00 -1°C° 0.2 mm 5 mps 765 mmHg 94%
    08:00 -1°C° 0.1 mm 5 mps 765 mmHg 93%
    09:00 -1°C° 0.1 mm 4 mps 765 mmHg 92%
    10:00 -1°C° 0.1 mm 4 mps 765 mmHg 92%
    11:00 -1°C° 0.1 mm 4 mps 765 mmHg 91%
    12:00 -1°C° 0.1 mm 4 mps 765 mmHg 91%
    13:00 -1°C° 0.1 mm 4 mps 765 mmHg 90%
    14:00 -1°C° 0.1 mm 4 mps 765 mmHg 90%
    15:00 -2°C° 0.1 mm 4 mps 765 mmHg 91%
    16:00 -2°C° 0.1 mm 4 mps 765 mmHg 91%
    17:00 -2°C° 0.1 mm 4 mps 765 mmHg 91%
    18:00 -2°C° 0.1 mm 4 mps 765 mmHg 91%
    19:00 -2°C° 0.1 mm 4 mps 765 mmHg 91%
    20:00 -2°C° 0.2 mm 4 mps 765 mmHg 91%
    21:00 -2°C° 0.2 mm 4 mps 765 mmHg 91%
    22:00 -2°C° 0.2 mm 4 mps 764 mmHg 91%
    23:00 -2°C° 0.2 mm 4 mps 764 mmHg 91%

    21 December, Friday

    Time Temperature Precipitation Wind Pressure Humidity
    00:00 -2°C° 0.2 mm 4 mps 764 mmHg 92%
    01:00 -2°C° 0.2 mm 4 mps 764 mmHg 92%
    02:00 -2°C° 0.2 mm 4 mps 764 mmHg 92%
    03:00 -2°C° 0.2 mm 4 mps 764 mmHg 91%
    04:00 -2°C° 0.2 mm 4 mps 763 mmHg 91%
    05:00 -3°C° 0.1 mm 4 mps 763 mmHg 90%
    06:00 -3°C° 0.1 mm 4 mps 763 mmHg 90%
    07:00 -3°C° 0.1 mm 4 mps 763 mmHg 90%
    08:00 -3°C° 0.1 mm 4 mps 763 mmHg 90%
    09:00 -3°C° 0.1 mm 4 mps 763 mmHg 90%
    10:00 -3°C° 0.1 mm 4 mps 763 mmHg 90%
    11:00 -3°C° 0.1 mm 4 mps 762 mmHg 89%
    12:00 -3°C° 0.1 mm 4 mps 762 mmHg 88%
    13:00 -3°C° 0.1 mm 4 mps 762 mmHg 87%
    14:00 -3°C° 0.1 mm 4 mps 762 mmHg 88%
    15:00 -3°C° 0.1 mm 4 mps 761 mmHg 90%
    16:00 -4°C° 0.1 mm 4 mps 761 mmHg 91%
    17:00 -4°C° 0.2 mm 4 mps 761 mmHg 91%
    18:00 -4°C° 0.2 mm 4 mps 761 mmHg 91%
    19:00 -4°C° 0.2 mm 4 mps 760 mmHg 91%
    20:00 -4°C° 0.2 mm 4 mps 760 mmHg 91%
    21:00 -4°C° 0.2 mm 4 mps 760 mmHg 91%
    22:00 -4°C° 0.2 mm 4 mps 760 mmHg 92%
    23:00 -4°C° 0.2 mm 4 mps 759 mmHg 92%

    22 December, Saturday

    Time Temperature Precipitation Wind Pressure Humidity
    00:00 -4°C° 0.2 mm 4 mps 759 mmHg 92%
    01:00 -4°C° 0.2 mm 4 mps 759 mmHg 92%
    02:00 -4°C° 0.2 mm 4 mps 759 mmHg 92%
    03:00 -4°C° 0.2 mm 3 mps 758 mmHg 92%
    04:00 -4°C° 0.2 mm 3 mps 758 mmHg 92%
    05:00 -4°C° 0.1 mm 3 mps 758 mmHg 93%
    06:00 -4°C° 0.1 mm 3 mps 758 mmHg 93%
    07:00 -3°C° 0.1 mm 2 mps 758 mmHg 93%
    08:00 -3°C° 0.1 mm 2 mps 758 mmHg 93%
    09:00 -3°C° 0.1 mm 2 mps 758 mmHg 94%
    10:00 -3°C° 0.1 mm 2 mps 759 mmHg 94%
    11:00 -3°C° 0.1 mm 2 mps 759 mmHg 94%
    12:00 -1°C° 0.1 mm 1 mps 759 mmHg 93%
    13:00 -1°C° 0.1 mm 1 mps 759 mmHg 93%
    14:00 -2°C° 0.1 mm 1 mps 759 mmHg 94%
    15:00 -2°C° 0.1 mm 1 mps 759 mmHg 94%
    16:00 -3°C° 0.1 mm 1 mps 759 mmHg 95%
    17:00 -3°C° 0.1 mm 1 mps 759 mmHg 95%
    18:00 -3°C° 0.1 mm 1 mps 760 mmHg 95%
    19:00 -3°C° 0.1 mm 1 mps 760 mmHg 95%
    20:00 -3°C° 0.1 mm 1 mps 760 mmHg 95%
    21:00 -3°C° 0.1 mm 1 mps 760 mmHg 95%
    22:00 -3°C° 0.1 mm 1 mps 760 mmHg 95%
    23:00 -3°C° 0 mm 1 mps 761 mmHg 95%
    Show more